Content
SEND FEEDBACK

United States of America Flag

HAWLEY, PENNSYLVANIA


Home > North America > United States > Pennsylvania
Elevation: 358 meters     Latitude: 41 29N     Longitude: 075 10W

WEATHER
 
SELECT A DAY
Number of Records: 486,128;   Date Range: 1/1/95 - 3/22/16
 
SHARE

PRINT THIS DATA

[ ← Previous Day ]
WEATHER ALMANAC - FEBRUARY 1, 2013
[ Next Day → ]
[ °C ]   °F
Weather ElementAverageHighLow
Temperature19.6 °F24.8 °F (1:55 pm)15.8 °F (7:55 pm)
Dewpoint6.3 °F10.4 °F (5:35 am)1.4 °F (3:35 pm)
Humidity56.9 %73 % (9:55 pm)42 % (3:35 pm)
Barometer29.86 in30.10 in (11:15 pm)29.67 in (12:35 am)
Wind Speed14 mph26.5 mph (2:15 pm)
Wind Gust36.8 mph (2:15 pm)
Weather ElementAverage
Visibility9.4 mi
Wind DirectionWNW (283 °)

Weather ElementTotal
Precipitation---
Heating Degree Days44.7 (Base 65)
Averaged from 63 records on February 1, 2013
WEATHER CONDITIONS BREAKOUT
WIND DIRECTION BREAKOUT
WEATHER BY HOUR - FEBRUARY 1, 2013
[ °C ]   °F
Local TimeTemperatureDewpointHumidityBarometerVisibilityWind DirectionWind SpeedGust SpeedPrecipitationEventsConditions
12:35 AM21.2 °F6.8 °F54 %29.67 in10.0 miWest (270°)9.2 mph21.9 mphOvercast
1:15 AM21.2 °F6.8 °F54 %29.67 in10.0 miWest (260°)10.4 mph20.7 mphOvercast
1:35 AM21.2 °F6.8 °F54 %29.68 in10.0 miWest (260°)8.1 mph21.9 mphOvercast
2:15 AM21.2 °F6.8 °F54 %29.68 in10.0 miWest (260°)15.0 mph24.2 mphOvercast
2:35 AM21.2 °F6.8 °F54 %29.68 in10.0 miWest (260°)12.7 mph25.3 mphOvercast
2:55 AM21.2 °F8.6 °F58 %29.68 in10.0 miWSW (250°)8.1 mphOvercast
3:15 AM21.2 °F8.6 °F58 %29.67 in10.0 miWest (260°)6.9 mphOvercast
3:35 AM21.2 °F6.8 °F54 %29.67 in10.0 miWest (280°)10.4 mph16.1 mphOvercast
4:15 AM19.4 °F6.8 °F58 %29.67 in10.0 miWSW (250°)6.9 mphScattered Clouds
4:35 AM19.4 °F8.6 °F63 %29.67 in10.0 miWSW (250°)6.9 mphMostly Cloudy
5:15 AM21.2 °F8.6 °F58 %29.68 in10.0 miWest (260°)16.1 mph20.7 mphOvercast
5:35 AM19.4 °F10.4 °F68 %29.70 in5.0 miWSW (250°)11.5 mph17.3 mphOvercast
6:15 AM19.4 °F8.6 °F63 %29.71 in10.0 miWSW (250°)10.4 mph16.1 mphOvercast
6:35 AM19.4 °F8.6 °F63 %29.72 in10.0 miWSW (250°)12.7 mph19.6 mphMostly Cloudy
6:55 AM19.4 °F6.8 °F58 %29.73 in10.0 miWSW (250°)10.4 mph18.4 mphOvercast
7:15 AM19.4 °F6.8 °F58 %29.74 in10.0 miWest (260°)11.5 mph16.1 mphOvercast
7:35 AM19.4 °F6.8 °F58 %29.75 in10.0 miWest (260°)12.7 mph17.3 mphOvercast
8:15 AM19.4 °F8.6 °F63 %29.78 in8.0 miWest (270°)11.5 mph17.3 mphMostly Cloudy
8:35 AM19.4 °F8.6 °F63 %29.78 in2.5 miWest (270°)10.4 mph21.9 mphOvercast
9:15 AM21.2 °F10.4 °F63 %29.77 in10.0 miWNW (290°)17.3 mph25.3 mphPartly Cloudy
9:35 AM21.2 °F10.4 °F63 %29.78 in10.0 miWest (270°)16.1 mph23.0 mphMostly Cloudy
9:55 AM21.2 °F6.8 °F54 %29.78 in10.0 miWNW (290°)20.7 mph28.8 mphOvercast
10:15 AM21.2 °F6.8 °F54 %29.79 in10.0 miWNW (290°)18.4 mph33.4 mphMostly Cloudy
10:35 AM23.0 °F8.6 °F54 %29.80 in10.0 miWest (280°)16.1 mph32.2 mphMostly Cloudy
10:55 AM23.0 °F8.6 °F54 %29.80 in10.0 miWNW (290°)18.4 mph28.8 mphOvercast
11:15 AM23.0 °F3.2 °F43 %29.81 in10.0 miWNW (290°)15.0 mph29.9 mphOvercast
11:35 AM23.0 °F5.0 °F46 %29.81 in10.0 miWNW (300°)20.7 mph29.9 mphOvercast
11:55 AM21.2 °F5.0 °F50 %29.81 in8.0 miNW (320°)25.3 mph35.7 mphMostly Cloudy
12:15 PM23.0 °F10.4 °F59 %29.80 in10.0 miWNW (300°)23.0 mph29.9 mphScattered Clouds
12:35 PM23.0 °F3.2 °F43 %29.81 in5.0 miWNW (300°)21.9 mph35.7 mphMostly Cloudy
12:55 PM23.0 °F8.6 °F54 %29.80 in10.0 miWNW (290°)20.7 mph26.5 mphMostly Cloudy
1:15 PM21.2 °F3.2 °F46 %29.81 in8.0 miWNW (300°)20.7 mph33.4 mphMostly Cloudy
1:35 PM23.0 °F6.8 °F50 %29.82 in10.0 miWNW (300°)21.9 mph29.9 mphMostly Cloudy
1:55 PM24.8 °F5.0 °F43 %29.82 in10.0 miWNW (290°)23.0 mph34.5 mphMostly Cloudy
2:15 PM21.2 °F3.2 °F46 %29.84 in8.0 miNW (310°)26.5 mph36.8 mphOvercast
2:35 PM21.2 °F6.8 °F54 %29.85 in10.0 miNW (320°)15.0 mph29.9 mphMostly Cloudy
2:55 PM19.4 °F5.0 °F54 %29.86 in10.0 miNW (310°)15.0 mph32.2 mphMostly Cloudy
3:15 PM21.2 °F3.2 °F46 %29.87 in10.0 miWNW (300°)17.3 mph26.5 mphScattered Clouds
3:35 PM21.2 °F1.4 °F42 %29.89 in10.0 miNNW (330°)24.2 mph36.8 mphMostly Cloudy
3:55 PM21.2 °F3.2 °F46 %29.90 in10.0 miWNW (300°)20.7 mph31.1 mphOvercast
4:15 PM19.4 °F1.4 °F46 %29.91 in10.0 miWNW (300°)17.3 mph27.6 mphScattered Clouds
4:35 PM19.4 °F3.2 °F49 %29.92 in10.0 miWNW (300°)15.0 mph24.2 mphScattered Clouds
5:15 PM17.6 °F3.2 °F53 %29.95 in10.0 miWNW (290°)15.0 mph23.0 mphPartly Cloudy
5:35 PM17.6 °F1.4 °F49 %29.96 in10.0 miWNW (300°)16.1 mph23.0 mphClear
5:55 PM17.6 °F3.2 °F53 %29.97 in10.0 miWNW (300°)11.5 mph19.6 mphClear
6:15 PM17.6 °F3.2 °F53 %29.99 in10.0 miWNW (290°)11.5 mph19.6 mphClear
6:35 PM17.6 °F3.2 °F53 %30.00 in10.0 miWNW (300°)11.5 mph19.6 mphClear
6:55 PM17.6 °F3.2 °F53 %30.01 in10.0 miWNW (300°)10.4 mphClear
7:15 PM17.6 °F5.0 °F58 %30.02 in10.0 miWNW (290°)10.4 mph17.3 mphClear
7:35 PM17.6 °F5.0 °F58 %30.02 in10.0 miWest (280°)11.5 mphClear
7:55 PM15.8 °F5.0 °F62 %30.03 in10.0 miWest (280°)9.2 mphClear
8:15 PM15.8 °F5.0 °F62 %30.04 in10.0 miWest (280°)6.9 mphPartly Cloudy
8:35 PM15.8 °F5.0 °F62 %30.04 in10.0 miWNW (290°)10.4 mphClear
8:55 PM15.8 °F5.0 °F62 %30.05 in10.0 miWest (280°)10.4 mphScattered Clouds
9:15 PM15.8 °F6.8 °F68 %30.06 in10.0 miWNW (290°)13.8 mph18.4 mphMostly Cloudy
9:35 PM17.6 °F6.8 °F63 %30.07 in5.0 miWNW (290°)9.2 mphOvercast
9:55 PM15.8 °F8.6 °F73 %30.07 in4.0 miWest (280°)6.9 mphOvercast
10:15 PM15.8 °F8.6 °F73 %30.08 in10.0 miWNW (290°)11.5 mph18.4 mphScattered Clouds
10:35 PM15.8 °F8.6 °F73 %30.08 in10.0 miWest (280°)10.4 mph16.1 mphClear
10:55 PM15.8 °F8.6 °F73 %30.09 in10.0 miWest (280°)11.5 mphClear
11:15 PM15.8 °F8.6 °F73 %30.10 in10.0 miWest (280°)9.2 mph16.1 mphClear
11:35 PM15.8 °F8.6 °F73 %30.10 in10.0 miWNW (290°)10.4 mph17.3 mphClear
11:55 PM15.8 °F6.8 °F68 %30.10 in10.0 miWest (280°)9.2 mphClear
Hourly data recorded from KMSV, located miles away from Hawley, Pennsylvania




STORIES FROM OUR PARTNERS